Location: West Cummington
(42.4920°N, 72.9680°W)
Time: 00:15:45
(UTC-04:00)

ATLAS 2AS CENTAUR R/B - Visible Passes

Search period start: 23 May 2015 00:00
Search period end: 02 June 2015 00:00
Orbit: 912 x 1300 km, 63.7° (Epoch: 21 May)

Date Brightness Start Highest point End Pass type
(mag) Time Alt. Az. Time Alt. Az. Time Alt. Az.
23 May 5.6 00:55:21 10° NW 01:00:27 18° NNW 01:05:35 10° NNE visible
23 May 5.7 02:49:55 10° NNW 02:54:55 17° NNE 03:00:03 10° NE visible
23 May 4.8 04:41:09 10° NNW 04:48:34 37° NE 04:55:52 10° ESE visible
23 May 3.7 22:14:36 10° SW 22:21:49 56° NW 22:29:38 10° NNE visible
24 May 5.4 00:09:06 10° WNW 00:14:48 21° NNW 00:20:34 10° NNE visible
24 May 5.7 02:04:35 10° NNW 02:09:11 16° N 02:13:51 10° NE visible
24 May 5.2 03:56:25 10° NNW 04:03:12 29° NNE 04:10:00 10° E visible
24 May 3.1 21:29:35 10° SW 21:36:53 79° NW 21:44:51 10° NE visible
24 May 5.1 23:23:00 10° W 23:29:16 26° NNW 23:35:44 10° NNE visible
25 May 5.8 01:18:53 10° NW 01:23:23 16° N 01:27:57 10° NNE visible
25 May 5.5 03:11:38 10° NNW 03:17:43 23° NNE 03:23:53 10° ENE visible
25 May 2.9 20:44:56 10° SSW 20:52:06 72° ESE 20:59:58 10° NE visible
25 May 4.7 22:37:07 10° W 22:43:52 34° NW 22:50:58 10° NNE visible
26 May 5.7 00:32:50 10° NW 00:37:39 17° N 00:42:28 10° NNE visible
26 May 5.7 02:26:43 10° NNW 02:32:05 19° NNE 02:37:36 10° ENE visible
26 May 4.4 04:17:45 10° NNW 04:25:27 45° NE 04:32:59 10° ESE visible
26 May 4.1 21:51:32 10° WSW 21:58:38 46° NW 22:06:15 10° NNE visible
26 May 5.6 23:46:36 10° WNW 23:51:56 19° NNW 23:57:18 10° NNE visible
27 May 5.8 01:41:35 10° NNW 01:46:23 17° N 01:51:18 10° NE visible
27 May 4.9 03:33:01 10° NNW 03:40:12 33° NE 03:47:19 10° E visible
27 May 3.5 21:06:18 10° SW 21:13:36 65° NW 21:21:30 10° NNE visible
27 May 5.4 23:00:24 10° WNW 23:06:20 23° NNW 23:12:23 10° NNE visible
28 May 5.8 00:56:06 10° NNW 01:00:37 16° N 01:05:12 10° NE visible
28 May 5.3 02:48:17 10° NNW 02:54:47 26° NNE 03:01:21 10° E visible
28 May 3.4 04:39:06 10° NNW 04:47:16 76° NE 04:55:07 10° SE visible
28 May 5.0 22:14:22 10° W 22:20:51 29° NNW 22:27:35 10° NNE visible
29 May 5.8 00:10:15 10° NW 00:14:51 16° N 00:19:28 10° NNE visible
29 May 5.5 02:03:27 10° NNW 02:09:14 21° NNE 02:15:08 10° ENE visible
29 May 4.0 03:54:20 10° NNW 04:02:17 54° NE 04:09:59 10° ESE visible
29 May 4.6 21:28:37 10° WSW 21:35:31 38° NW 21:42:51 10° NNE visible
29 May 5.7 23:24:06 10° NW 23:29:07 17° NNW 23:34:08 10° NNE visible
30 May 5.7 01:18:28 10° NNW 01:23:34 18° NNE 01:28:49 10° NE visible
30 May 4.5 03:09:37 10° NNW 03:17:08 40° NE 03:24:31 10° ESE visible
30 May 4.0 20:43:10 10° WSW 20:50:22 53° NW 20:58:06 10° NNE visible
30 May 5.6 22:37:52 10° WNW 22:43:26 20° NNW 22:49:05 10° NNE visible
31 May 5.8 00:33:12 10° NNW 00:37:51 16° N 00:42:35 10° NE visible
31 May 5.0 02:24:54 10° NNW 02:31:48 30° NNE 02:38:43 10° E visible
31 May 3.1 04:15:46 10° NW 04:23:56 89° WSW 04:31:46 10° SSE visible
31 May 5.3 21:51:42 10° W 21:57:53 25° NNW 22:04:13 10° NNE visible
31 May 5.8 23:47:34 10° NW 23:52:04 16° N 23:56:37 10° NNE visible
01 Jun 5.3 01:40:07 10° NNW 01:46:20 24° NNE 01:52:38 10° ENE visible
01 Jun 3.5 03:30:58 10° NNW 03:39:03 66° NE 03:46:52 10° SE visible
01 Jun 5.0 21:05:47 10° W 21:12:28 32° NW 21:19:27 10° NNE visible
01 Jun 5.7 23:01:34 10° NW 23:06:18 16° N 23:11:03 10° NNE visible
